Theta_e
294 288 287 288 292 293 293 291 290 294 298 295 295 296 298 299 300 300 301 300 302 302 304 308 317 331 337 336 337 336 336 336 339 337 334 335 336 337 337 338 338 340 341 341
293 287 292 293 294 292 291 289 289 294 298 296 295 294 298 299 299 300 300 300 300 300 301 303 306 326 335 334 336 336 336 336 339 339 338 337 338 338 338 340 340 340 340 340
290 294 299 295 292 290 290 289 289 289 294 295 293 290 293 297 299 301 301 302 302 302 302 302 304 326 333 334 335 336 336 336 340 343 342 340 340 343 340 341 342 343 341 341
292 296 296 294 293 294 288 294 294 294 290 284 291 282 289 292 295 297 300 300 302 303 302 304 303 323 332 334 337 337 337 337 338 342 344 342 339 338 342 342 344 347 344 343
289 292 292 292 292 296 291 298 296 294 291 288 289 283 287 292 291 294 297 300 301 302 302 303 302 313 333 335 336 338 338 338 339 341 344 344 342 341 340 345 345 347 347 347
292 297 294 294 297 297 299 295 293 292 290 284 288 286 287 291 292 295 298 300 302 302 302 303 304 304 324 335 337 338 338 337 340 342 342 342 341 342 342 344 344 344 346 348
286 288 295 297 291 295 293 288 278 281 282 281 290 286 289 294 296 296 297 298 300 302 301 301 301 301 305 331 334 336 336 335 340 342 344 343 342 343 343 343 344 343 343 343
278 278 289 293 291 289 289 289 280 277 278 280 289 285 289 297 300 301 301 299 300 301 301 300 302 303 305 328 334 335 335 335 338 341 343 345 344 345 344 346 345 344 341 339
280 282 293 295 296 295 289 286 291 285 286 281 285 289 294 297 297 298 297 299 298 300 302 302 301 302 305 319 337 337 336 336 338 340 343 344 343 341 341 341 342 341 340 339
287 279 290 294 295 296 294 294 284 283 275 277 281 284 286 290 292 298 299 300 303 306 307 304 301 301 303 314 337 341 340 339 342 344 346 342 339 341 341 341 339 338 337 335
289 285 286 291 289 287 288 287 287 285 282 278 277 281 290 291 297 298 300 303 303 304 308 310 304 302 303 311 327 342 342 343 345 348 343 340 339 339 339 338 336 334 333 331
290 287 281 285 293 296 294 290 288 280 279 284 281 282 299 299 300 302 302 304 304 305 315 313 308 302 300 312 321 336 344 344 345 343 340 337 337 335 334 332 332 332 324 319
290 286 278 279 289 293 289 291 291 290 290 284 279 281 295 298 299 302 300 302 305 307 311 320 313 301 301 314 322 334 344 342 339 338 335 334 332 328 324 319 318 316 314 312
294 287 280 275 280 285 285 289 290 287 281 284 286 287 292 294 295 298 299 301 304 306 309 319 309 306 305 315 326 338 338 336 333 330 327 322 319 316 314 313 311 310 308 304
291 284 284 286 287 287 287 287 287 285 286 283 285 288 292 295 299 300 303 303 304 306 310 317 318 314 317 325 333 333 331 328 326 320 317 312 312 311 310 309 307 304 303 302
286 284 285 281 287 287 286 288 289 288 288 287 288 288 296 298 304 304 304 304 304 308 314 325 324 327 328 330 330 327 323 320 317 314 311 311 309 308 307 307 305 302 301 299
285 279 278 277 285 284 282 288 291 293 295 291 286 291 297 301 304 305 308 303 309 309 316 320 320 321 321 323 323 319 316 316 312 311 311 309 308 307 305 304 302 300 297 296
285 284 284 278 281 272 289 295 294 291 296 296 294 299 303 303 303 304 306 307 306 308 307 312 313 313 314 314 314 314 313 312 310 309 308 308 307 304 304 302 299 298 295 294
289 285 280 280 278 283 289 292 290 288 290 297 300 303 304 303 303 301 306 306 305 306 306 307 310 311 311 312 312 311 310 309 307 306 306 306 305 304 303 300 299 297 295 294
292 288 284 283 278 277 288 292 295 296 290 297 300 303 302 303 293 296 302 303 302 303 304 304 304 307 306 307 309 308 307 306 305 305 304 305 306 304 302 300 299 297 296 294
285 285 281 281 281 285 291 292 296 290 290 295 298 303 301 298 299 300 300 299 300 300 300 302 301 300 302 304 305 305 305 304 306 305 305 304 303 301 300 299 298 297 296 294
284 283 283 284 281 279 292 292 289 292 295 297 302 301 299 299 299 299 299 299 299 299 299 300 299 300 301 302 302 302 302 304 304 303 302 302 302 301 300 298 297 297 295 292
284 287 284 285 284 291 295 294 297 298 297 299 302 302 300 299 298 299 298 297 296 297 298 299 299 299 300 301 302 299 301 302 301 299 298 298 296 296 297 296 295 295 295 292
290 293 288 288 291 292 295 297 298 303 304 304 303 302 301 298 298 297 297 297 296 297 297 298 298 298 299 301 301 301 301 300 298 295 293 292 290 289 289 290 290 292 293 292
289 292 289 289 292 294 295 297 299 303 303 302 303 302 300 299 298 298 297 297 297 297 297 297 296 297 298 300 300 300 300 298 294 292 290 289 287 287 286 286 286 287 286 290
291 291 287 285 294 294 294 298 300 298 300 301 300 300 301 300 299 299 298 298 298 297 297 296 296 296 297 298 299 299 299 297 294 291 289 287 286 286 286 286 286 290 290 289
Wind_Speed
5 4 12 8 11 11 8 13 14 11 7 7 15 21 12 6 9 9 10 9 9 10 10 9 13 14 18 19 19 18 16 15 13 10 10 8 8 8 6 6 9 11 8 8
2 11 10 13 10 11 11 13 16 15 15 14 20 28 16 12 13 8 10 10 11 9 6 8 8 12 16 18 18 17 17 15 14 11 9 6 8 6 6 5 7 8 10 10
14 8 14 12 14 13 14 14 13 11 12 12 16 25 15 9 11 12 8 9 10 15 14 10 12 14 15 17 17 18 18 17 16 13 7 3 5 4 4 4 4 7 10 10
8 3 11 10 10 9 13 11 9 11 4 6 5 17 10 6 13 11 14 10 13 14 9 12 14 16 17 19 18 18 19 18 16 13 13 14 13 10 9 8 8 7 9 9
8 11 11 12 12 7 15 5 4 8 6 3 4 5 4 7 7 9 10 11 10 12 11 14 11 18 19 17 18 18 19 17 18 17 17 14 12 4 4 4 10 7 7 7
14 3 3 7 12 11 2 4 1 1 4 7 12 7 9 10 10 7 6 9 10 9 10 10 12 12 17 17 16 16 19 19 18 17 16 17 13 11 6 6 7 6 5 6
11 15 9 9 18 10 5 5 2 3 7 7 9 8 17 9 9 11 11 10 10 9 8 9 10 11 10 17 18 17 18 19 18 18 16 15 13 12 12 8 6 9 6 4
4 6 10 13 23 13 10 13 6 7 4 3 2 6 15 16 14 14 13 11 10 8 8 9 12 14 15 17 19 20 20 18 17 17 15 11 12 7 5 7 7 6 5 8
5 6 7 7 5 7 5 9 10 4 2 1 5 8 19 6 11 7 11 10 8 8 8 10 9 10 13 13 19 21 19 20 19 17 12 8 7 8 7 8 6 5 11 10
5 7 9 5 4 5 5 5 4 2 5 5 5 6 15 3 2 3 4 7 7 7 9 9 7 9 8 11 16 18 19 20 17 15 13 11 10 9 9 8 9 10 11 13
7 7 4 3 4 2 1 1 3 3 4 5 2 9 5 8 4 4 6 7 9 8 11 11 9 8 11 10 12 16 17 16 14 13 12 14 12 11 9 13 12 9 12 15
3 6 4 7 4 2 2 0 4 4 3 4 3 12 5 6 5 5 7 8 8 7 13 13 11 10 8 9 10 14 14 17 15 16 14 15 15 13 12 13 14 13 14 12
4 3 4 7 7 4 4 1 2 3 0 9 3 7 4 6 6 7 6 8 7 7 11 11 9 9 10 12 12 14 15 15 16 16 18 16 16 15 14 14 15 13 15 12
5 4 5 5 3 2 3 5 4 5 3 3 11 21 13 11 11 9 6 8 8 7 8 10 9 9 12 13 16 16 15 15 16 18 17 18 17 17 14 16 16 15 13 13
3 5 3 8 10 10 13 15 13 13 14 11 8 9 13 9 8 7 6 7 10 6 10 8 5 10 14 16 16 17 16 16 18 20 19 19 17 17 17 18 16 15 14 13
6 4 4 6 11 10 13 11 11 14 15 16 17 25 18 14 5 6 9 6 6 4 10 6 8 15 17 19 19 19 17 17 18 21 21 20 19 18 17 18 16 15 14 12
5 2 3 5 7 11 8 4 6 9 12 11 16 13 11 3 3 4 6 1 5 9 10 9 12 14 13 12 14 19 20 19 21 23 17 19 20 20 16 16 17 14 13 12
6 2 3 5 7 3 4 9 9 14 8 8 7 3 6 7 8 10 10 3 3 14 17 7 15 17 17 15 16 17 18 18 22 22 20 19 19 18 16 17 16 13 11 11
15 5 4 4 2 9 0 5 8 8 7 16 3 7 10 10 12 14 14 11 7 20 15 10 13 18 17 16 15 18 16 18 19 19 20 19 17 16 16 19 14 12 12 11
5 10 4 1 3 5 2 14 20 11 4 15 13 9 7 2 5 5 9 12 15 17 16 10 16 15 17 15 16 16 16 19 18 17 17 16 16 15 16 16 14 9 11 12
2 2 8 5 4 6 10 23 18 2 4 18 13 3 7 6 7 7 10 17 18 18 17 17 19 19 16 16 17 15 14 18 16 17 16 16 14 15 14 14 12 12 12 11
4 5 2 3 3 5 17 16 7 8 13 12 1 15 17 14 14 13 13 15 17 18 18 18 19 18 16 18 18 17 14 14 16 17 16 16 13 11 10 13 11 12 12 11
2 5 4 2 1 8 14 12 11 13 13 6 13 13 18 15 15 14 15 17 16 18 15 15 18 19 17 18 16 18 11 10 16 16 17 12 12 10 9 11 11 10 9 8
5 5 3 4 3 9 15 13 14 7 9 11 13 16 17 19 17 16 15 15 16 15 17 15 17 17 16 14 13 12 7 8 15 12 11 11 11 10 9 7 5 7 7 6
3 9 7 4 7 6 14 17 15 11 14 15 14 15 16 18 17 18 17 15 13 14 15 13 14 13 11 10 10 10 9 13 10 10 11 9 8 10 10 9 5 6 4 5
5 5 4 5 13 5 11 15 17 18 14 15 18 16 15 18 17 17 15 13 13 14 13 12 12 12 10 9 9 9 8 9 10 10 8 7 7 7 7 8 9 16 13 15
Wind_Direction
212 169 228 205 211 230 254 265 266 261 286 323 275 282 289 270 250 250 237 233 221 232 209 180 178 185 185 183 180 186 182 183 173 174 173 178 187 183 189 189 192 178 179 185
275 226 214 215 226 228 239 251 262 272 264 257 272 277 275 260 257 234 224 235 222 231 204 179 189 188 187 188 188 183 182 179 183 180 180 184 176 193 182 195 194 179 179 181
240 235 218 214 227 231 237 243 253 253 264 256 273 277 268 252 259 247 231 219 230 221 217 190 183 185 192 191 186 186 182 185 184 179 162 117 119 104 140 179 201 193 187 186
278 298 261 241 236 217 246 237 263 292 238 246 154 278 260 241 242 229 241 217 227 226 229 220 174 181 190 197 191 187 186 183 185 171 170 180 183 183 197 197 198 187 185 179
239 300 308 282 252 211 257 136 239 285 302 280 261 272 271 179 244 248 235 241 222 226 202 212 193 186 189 192 192 192 190 187 185 182 182 186 190 159 141 144 165 167 176 159
247 220 226 283 273 241 145 227 295 240 236 229 231 192 263 236 203 245 253 242 231 226 229 207 210 184 194 188 191 192 189 191 191 187 187 192 184 168 154 161 164 154 151 157
321 253 235 215 281 259 164 115 279 246 210 231 225 213 248 289 258 227 242 259 252 244 231 214 186 198 174 189 190 189 192 196 188 190 189 188 189 178 179 172 153 147 155 153
269 301 212 209 217 230 192 195 183 213 225 277 227 213 258 218 252 241 249 251 263 265 243 218 203 194 196 186 183 187 191 192 189 186 190 184 183 171 147 154 157 168 121 103
292 259 289 302 249 174 191 193 221 197 195 295 205 264 281 201 251 230 244 254 264 274 265 248 219 206 199 179 180 185 191 193 188 187 176 156 160 126 141 139 138 109 116 124
265 279 259 268 315 245 197 175 114 282 178 220 241 230 235 357 284 205 318 294 298 298 294 286 250 210 207 200 184 183 185 188 186 180 166 156 139 135 136 124 129 132 109 107
256 214 257 320 202 230 189 179 74 122 136 211 241 253 218 209 224 270 276 271 281 279 271 262 263 228 202 197 182 187 181 174 170 162 151 138 140 129 132 113 112 111 101 107
337 306 252 245 357 240 110 165 167 139 192 235 260 254 181 165 202 219 274 277 286 270 288 245 230 227 193 176 171 178 178 165 160 152 140 137 123 120 114 110 114 111 98 97
338 308 333 333 354 28 57 120 114 91 167 235 202 271 190 237 235 218 265 283 276 283 317 273 238 207 182 171 159 160 158 150 138 138 134 130 119 113 110 108 101 100 102 104
289 262 204 207 193 144 272 220 200 161 207 269 240 264 257 301 308 293 261 282 270 258 293 287 240 211 176 159 153 147 135 133 135 133 128 115 110 110 110 104 99 97 98 101
227 280 291 270 277 278 263 262 258 233 231 235 257 272 269 253 273 276 292 306 279 296 308 289 212 153 145 142 138 130 124 132 132 122 115 109 109 106 106 101 99 96 94 88
351 298 332 284 259 260 272 269 256 247 247 241 255 275 277 271 268 307 295 300 284 317 285 142 144 132 133 140 138 125 123 124 122 112 116 116 111 106 104 106 100 96 94 90
295 311 339 267 334 311 280 260 257 260 262 246 229 241 293 308 296 293 311 342 355 36 54 96 92 92 91 109 126 124 122 126 119 112 116 111 113 107 108 106 102 101 99 97
251 284 269 284 333 313 83 42 338 323 357 241 211 226 116 97 57 26 13 113 34 82 64 57 97 92 88 89 92 105 112 116 114 114 116 112 109 109 114 106 101 105 102 102
218 211 261 273 257 278 142 44 1 336 308 11 120 126 120 105 75 31 19 45 55 90 86 41 82 90 92 95 100 103 107 107 107 112 112 110 112 117 116 105 115 113 112 102
223 200 221 300 345 288 344 340 325 303 253 12 356 137 153 312 70 22 15 60 63 76 69 76 71 82 81 82 92 102 107 106 104 101 101 105 111 113 111 113 119 116 108 105
328 184 231 266 251 273 354 330 316 233 328 327 318 5 63 75 68 76 59 63 61 64 74 75 69 67 65 70 84 87 99 93 100 100 100 99 102 109 110 111 115 115 109 103
336 308 16 308 323 314 346 326 5 299 297 296 207 104 96 90 90 78 68 68 70 73 70 68 72 70 64 66 74 75 68 91 99 98 97 98 99 103 111 111 112 112 114 113
355 347 310 322 302 286 306 298 287 278 279 292 116 107 103 93 86 82 77 70 68 66 67 71 78 78 69 65 58 65 51 70 84 87 78 84 86 84 91 110 117 117 119 124
335 355 340 312 296 323 337 338 333 340 112 105 111 107 99 100 93 82 76 74 72 71 73 71 73 74 77 76 77 72 69 91 77 90 96 84 83 81 73 68 75 110 122 122
315 317 326 311 335 341 1 357 358 46 69 83 82 91 99 99 94 99 93 87 80 73 64 63 70 69 69 79 94 107 104 89 110 93 84 85 86 86 79 64 55 90 59 108
316 339 8 15 2 353 12 9 34 45 63 77 89 87 86 94 92 90 84 81 78 76 75 70 55 64 54 60 73 91 107 116 108 97 91 90 87 84 87 94 80 52 79 86